User: anonymous
Location: Unspecified
(0.0000°N, 0.0000°E)
Time: 17:10:18
(UTC+02:00)
Language:

Cosmos 1703 - Orbit

View from above orbital plane
View from above orbital plane
View from above satellite
View from above satellite

Ground track
Ground track

The orbit data is extracted from the following two-line orbital elements,

1 16262U 85108A   14211.10928873  .00002402  00000-0  16362-3 0  4899
2 16262 082.4923 200.9974 0011523 325.1717 034.8755 15.05803445560105
Epoch (UTC): 30 July 2014 02:37:22
Eccentricity: 0.0011523
inclination: 82.4923°
perigee height: 541 km
apogee height: 557 km
right ascension of ascending node: 200.9974°
argument of perigee: 325.1717°
revolutions per day: 15.05803445
mean anomaly at epoch: 34.8755°
orbit number at epoch: 56010

The dashed part of the orbit path shows where the satellite is in the earth's shadow,  

DLR